FW8490 Weather Reports


Display with metric or nautical units.
time (UTC)temp
F
wind
direction
speed
MPH
gust
MPH
rain 1hr
in
rain 24hr
in
rain mn
in
humidity
%
barometer
mb
20201201173345 33 264 0.0 0.0 0.00 0.00 0.00 99 985.9
20201201172844 33 264 1.0 1.0 0.00 0.00 0.00 99 986.0
20201201172342 33 270 2.0 2.0 0.00 0.00 0.00 99 985.7
20201201171841 33 284 3.0 3.0 0.00 0.00 0.00 99 985.4
20201201171340 34 287 2.0 3.0 0.00 0.00 0.00 99 985.7
20201201170842 34 266 1.0 1.0 0.00 0.00 0.00 99 985.7
20201201170338 34 233 1.0 1.0 0.00 0.00 0.00 99 985.4
20201201165835 34 244 0.0 1.0 0.00 0.00 0.00 99 985.0
20201201165329 34 307 2.0 2.0 0.00 0.00 0.00 99 985.0
20201201164828 34 268 2.0 2.0 0.00 0.00 0.00 99 985.0
20201201164327 34 251 2.0 2.0 0.00 0.00 0.00 99 984.7
20201201163822 34 268 1.0 1.0 0.00 0.00 0.00 99 984.5
20201201163320 34 252 2.0 2.0 0.00 0.00 0.00 99 984.6
20201201162815 34 247 2.0 3.0 0.00 0.00 0.00 99 984.6
20201201162311 35 287 5.0 7.0 0.00 0.00 0.00 99 984.2
20201201161811 35 270 1.0 3.0 0.00 0.00 0.00 99 984.4
20201201161307 35 225 2.0 3.0 0.00 0.00 0.00 99 983.9
20201201160801 35 214 3.0 3.0 0.00 0.00 0.00 99 984.1
20201201160257 35 262 3.0 5.0 0.00 0.00 0.00 99 983.9
20201201155742 35 240 3.0 3.0 0.00 0.00 0.00 99 983.9
20201201155240 35 297 2.0 2.0 0.00 0.00 0.00 99 983.8
20201201154739 35 211 1.0 1.0 0.04 0.00 0.00 99 983.8
20201201154247 35 216 2.0 2.0 0.04 0.00 0.00 99 983.8
20201201153736 35 223 1.0 1.0 0.00 0.00 0.00 99 983.3
20201201153237 35 252 2.0 3.0 0.00 0.00 0.00 99 983.4
20201201152731 35 183 3.0 3.0 0.00 0.00 0.00 99 983.1
20201201152140 35 261 3.0 3.0 0.00 0.00 0.00 99 983.0
20201201151629 35 276 2.0 3.0 0.00 0.00 0.00 99 982.9
20201201151121 35 268 0.0 0.0 0.00 0.00 0.00 99 982.9
20201201150618 34 239 1.0 1.0 0.00 0.00 0.00 99 982.7
20201201150112 34 127 2.0 2.0 0.00 0.00 0.00 99 982.7
20201201145612 34 290 3.0 3.0 0.00 0.00 0.00 99 982.8
20201201145105 34 271 1.0 2.0 0.00 0.00 0.00 99 982.5
20201201144601 34 265 2.0 2.0 0.00 0.00 0.00 99 982.4
20201201144056 34 260 2.0 2.0 0.00 0.00 0.00 99 982.5
20201201143524 34 228 3.0 5.0 0.00 0.00 0.00 99 982.1
20201201143032 34 216 5.0 6.0 0.00 0.00 0.00 99 982.3
20201201142515 34 236 0.0 1.0 0.00 0.00 0.00 99 982.1
20201201142017 0 0.0 0.0 0.00 0.00 0.00 982.2
20201201141510 34 182 0.0 1.0 0.00 0.00 0.00 99 981.8
20201201141015 34 182 0.0 1.0 0.00 0.00 0.00 99 981.9
20201201140513 34 182 0.0 1.0 0.00 0.00 0.00 99 982.0
20201201140000 34 197 5.0 8.0 0.00 0.00 0.00 99 982.0
20201201135458 34 225 5.0 6.0 0.00 0.00 0.00 99 981.8
20201201135022 34 330 1.0 2.0 0.00 0.00 0.00 99 981.8
20201201134719 34 110 2.0 2.0 0.00 0.00 0.00 99 981.7
20201201133924 34 229 3.0 3.0 0.00 0.00 0.00 99 981.7
20201201133419 34 262 1.0 1.0 0.00 0.00 0.00 99 981.8
20201201132918 34 61 2.0 3.0 0.00 0.00 0.00 99 981.7
20201201132418 34 212 6.0 9.0 0.00 0.00 0.00 99 981.7
20201201131909 34 58 3.0 6.0 0.00 0.00 0.00 99 981.7
20201201131404 34 234 3.0 5.0 0.00 0.00 0.00 99 981.4
20201201130904 33 141 2.0 2.0 0.00 0.00 0.00 99 981.5
20201201130406 33 200 2.0 2.0 0.00 0.00 0.00 99 981.5
20201201125859 33 245 2.0 3.0 0.00 0.00 0.00 99 981.5
20201201125356 33 249 2.0 2.0 0.00 0.00 0.00 99 981.5
20201201124850 33 195 2.0 3.0 0.00 0.00 0.00 99 981.4
20201201124347 33 54 3.0 3.0 0.00 0.00 0.00 99 981.4
20201201123845 33 172 7.0 10.0 0.00 0.00 0.00 99 981.3
20201201123342 33 205 1.0 2.0 0.00 0.00 0.00 99 981.4
20201201122842 33 235 3.0 3.0 0.00 0.00 0.00 99 981.3
20201201122339 33 252 3.0 5.0 0.00 0.00 0.00 99 981.3
20201201121836 33 129 2.0 3.0 0.00 0.00 0.00 99 981.4
20201201121330 33 206 6.0 7.0 0.00 0.00 0.00 99 981.4
20201201120831 33 185 2.0 5.0 0.00 0.00 0.00 99 981.2
20201201120326 33 146 0.0 1.0 0.00 0.00 0.00 99 981.3
20201201115553 33 245 1.0 2.0 0.00 0.00 0.00 99 981.1
20201201115047 33 138 4.0 5.0 0.00 0.00 0.00 99 981.2
20201201114545 33 186 1.0 5.0 0.00 0.00 0.00 99 981.3
20201201114020 33 243 1.0 1.0 0.00 0.00 0.00 99 981.4
20201201113513 33 195 1.0 1.0 0.00 0.00 0.00 99 981.0
20201201113011 32 175 1.0 1.0 0.00 0.00 0.00 99 981.4
20201201112506 32 239 4.0 6.0 0.00 0.00 0.00 99 981.3
20201201112009 32 202 4.0 5.0 0.00 0.00 0.00 99 981.3
20201201111454 32 184 2.0 3.0 0.00 0.00 0.00 99 981.4
20201201110949 32 173 1.0 1.0 0.00 0.00 0.00 99 981.3
20201201110446 32 143 3.0 5.0 0.00 0.00 0.00 99 981.2
20201201105945 32 48 1.0 1.0 0.00 0.00 0.00 99 981.4
20201201105441 32 41 0.0 1.0 0.00 0.00 0.00 99 981.5
20201201104941 32 255 0.0 0.0 0.00 0.00 0.00 99 981.4
20201201104433 32 46 0.0 0.0 0.00 0.00 0.00 99 981.5
20201201103929 32 61 0.0 0.0 0.00 0.00 0.00 99 981.6
20201201103428 32 227 0.0 0.0 0.00 0.00 0.00 99 981.5
20201201102928 32 173 0.0 1.0 0.00 0.00 0.00 99 981.6
20201201102418 32 104 0.0 0.0 0.00 0.00 0.00 99 981.4
20201201101917 32 210 1.0 2.0 0.00 0.00 0.00 99 981.5
20201201101416 32 90 0.0 0.0 0.00 0.00 0.00 99 981.6
20201201100723 32 76 0.0 1.0 0.00 0.00 0.00 99 981.6
20201201100223 31 192 2.0 2.0 0.00 0.00 0.00 99 981.6
20201201095727 31 228 1.0 1.0 0.00 0.00 0.00 99 981.7
20201201095218 31 97 0.0 1.0 0.00 0.00 0.00 99 981.9
20201201094714 31 87 1.0 2.0 0.00 0.00 0.00 99 981.6
20201201094216 31 75 0.0 0.0 0.00 0.00 0.00 99 981.8
20201201093713 31 164 1.0 1.0 0.00 0.00 0.00 99 981.6
20201201093211 31 118 1.0 1.0 0.00 0.00 0.00 99 981.8
20201201092707 31 73 0.0 0.0 0.00 0.00 0.00 99 981.8
20201201092205 31 217 0.0 0.0 0.00 0.00 0.00 99 981.8
20201201091651 31 192 0.0 1.0 0.00 0.00 0.00 99 981.9
20201201091148 31 83 0.0 0.0 0.00 0.00 0.00 98 982.1
20201201090645 31 51 1.0 1.0 0.00 0.00 0.00 98 982.2
20201201090125 31 109 0.0 0.0 0.00 0.00 0.00 98 982.2
20201201085625 31 230 1.0 1.0 0.00 0.00 0.00 97 982.4
20201201085127 31 116 1.0 1.0 0.00 0.00 0.00 97 982.1
20201201084617 31 265 3.0 3.0 0.00 0.00 0.00 97 982.3
20201201084115 31 100 0.0 0.0 0.00 0.00 0.00 97 982.5
20201201083607 31 67 0.0 0.0 0.00 0.00 0.00 96 982.4
20201201083030 31 165 0.0 1.0 0.00 0.00 0.00 96 982.4
20201201082528 31 64 0.0 1.0 0.00 0.00 0.00 96 982.4
20201201082035 31 195 2.0 2.0 0.00 0.00 0.00 96 982.5
20201201081523 31 206 0.0 1.0 0.00 0.00 0.00 96 982.3
20201201081020 31 19 1.0 2.0 0.00 0.00 0.00 96 982.4
20201201080516 31 143 0.0 0.0 0.00 0.00 0.00 96 982.5
20201201080022 31 158 2.0 2.0 0.00 0.00 0.00 96 982.3
20201201075510 31 145 0.0 1.0 0.00 0.00 0.00 96 982.5
20201201075004 31 164 1.0 2.0 0.00 0.00 0.00 96 982.5
20201201074501 30 198 1.0 1.0 0.00 0.00 0.00 96 982.3
20201201073956 30 67 0.0 1.0 0.00 0.00 0.00 96 982.4
20201201073452 30 151 0.0 1.0 0.00 0.00 0.00 96 982.5
20201201072949 30 234 0.0 1.0 0.00 0.00 0.00 96 982.6
20201201072449 30 171 2.0 2.0 0.00 0.00 0.00 96 982.5
20201201071943 30 222 0.0 0.0 0.00 0.00 0.00 96 982.5
20201201071439 30 179 0.0 0.0 0.00 0.00 0.00 96 982.5
20201201070938 30 127 0.0 0.0 0.00 0.00 0.00 96 982.4
20201201070434 30 163 0.0 0.0 0.00 0.00 0.00 96 982.3
20201201065931 30 228 1.0 2.0 0.00 0.00 0.00 96 982.2
20201201065428 30 223 1.0 1.0 0.00 0.00 0.00 96 982.4
20201201064925 30 245 0.0 1.0 0.00 0.00 0.00 95 982.4
20201201064423 30 215 1.0 1.0 0.00 0.00 0.00 95 982.2
20201201063924 30 213 2.0 3.0 0.00 0.00 0.00 96 982.2
20201201063421 30 87 0.0 0.0 0.00 0.00 0.00 96 982.4
20201201062912 30 102 0.0 1.0 0.00 0.00 0.00 95 982.3
20201201062518 30 138 0.0 0.0 0.00 0.00 0.00 95 982.2
20201201061907 30 18 0.0 0.0 0.00 0.00 0.00 96 982.3
20201201061405 30 263 1.0 2.0 0.00 0.00 0.00 95 982.2
20201201060901 30 165 0.0 1.0 0.00 0.00 0.00 96 982.4
20201201060356 30 168 1.0 2.0 0.00 0.00 0.00 96 982.3
20201201055840 30 191 1.0 1.0 0.00 0.00 0.00 95 982.2
20201201055337 30 157 5.0 7.0 0.00 0.00 0.00 96 982.3
20201201054833 30 141 1.0 5.0 0.00 0.00 0.00 96 982.2
20201201054332 30 142 1.0 2.0 0.00 0.00 0.00 96 982.2
20201201053830 30 232 0.0 0.0 0.00 0.00 0.00 96 982.1
20201201053327 30 154 3.0 6.0 0.00 0.00 0.00 96 982.1
20201201052819 30 218 0.0 0.0 0.00 0.00 0.00 96 982.1
20201201052318 29 123 0.0 0.0 0.00 0.00 0.00 97 982.2
20201201051816 29 83 1.0 1.0 0.00 0.00 0.00 97 982.3
20201201051313 29 162 5.0 6.0 0.00 0.00 0.00 97 982.2
20201201050808 29 40 1.0 1.0 0.00 0.00 0.00 97 982.2
20201201050304 29 213 2.0 2.0 0.00 0.00 0.00 97 982.3
20201201045759 29 83 0.0 0.0 0.00 0.00 0.00 97 982.2
20201201045258 29 58 0.0 0.0 0.00 0.00 0.00 98 982.1
20201201044751 29 54 0.0 0.0 0.00 0.00 0.00 98 982.2
20201201044247 29 276 0.0 1.0 0.00 0.00 0.00 98 982.0
20201201043744 29 355 0.0 0.0 0.00 0.00 0.00 98 982.3
20201201043244 28 105 0.0 0.0 0.00 0.00 0.00 98 982.1
20201201042743 28 307 0.0 1.0 0.00 0.00 0.00 98 982.1
20201201042238 28 106 0.0 0.0 0.00 0.00 0.00 98 982.5
20201201041733 28 189 0.0 0.0 0.00 0.00 0.00 98 982.4
20201201041229 28 239 1.0 1.0 0.00 0.00 0.00 99 982.3
20201201040723 28 111 0.0 1.0 0.00 0.00 0.00 98 982.3
20201201040224 28 52 0.0 0.0 0.00 0.00 0.00 98 982.4
20201201035717 28 49 0.0 1.0 0.00 0.00 0.00 99 982.5
20201201035213 28 78 0.0 0.0 0.00 0.00 0.00 98 982.3
20201201034710 28 201 0.0 0.0 0.00 0.00 0.00 98 982.4
20201201034208 28 314 1.0 2.0 0.00 0.00 0.00 98 982.4
20201201033658 28 149 1.0 1.0 0.00 0.00 0.00 98 982.3
20201201033157 28 42 0.0 0.0 0.00 0.00 0.00 98 982.3
20201201032653 28 197 0.0 0.0 0.00 0.00 0.00 98 982.3
20201201032149 28 166 0.0 0.0 0.00 0.00 0.00 98 982.3
20201201031649 28 98 0.0 0.0 0.00 0.00 0.00 97 982.2
20201201031149 28 127 0.0 0.0 0.00 0.00 0.00 97 982.4
20201201030648 29 191 0.0 0.0 0.00 0.00 0.00 97 982.2
20201201030146 29 75 0.0 0.0 0.00 0.00 0.00 97 982.2
20201201025644 29 129 1.0 1.0 0.00 0.00 0.00 97 982.1
20201201025138 28 74 0.0 0.0 0.00 0.00 0.00 97 982.2
20201201024633 28 181 0.0 1.0 0.00 0.00 0.00 98 982.2
20201201024132 28 300 0.0 0.0 0.00 0.00 0.00 98 982.2
20201201023629 28 225 0.0 0.0 0.00 0.00 0.00 97 982.1
20201201023129 28 232 0.0 1.0 0.00 0.00 0.00 97 982.0
20201201022627 29 58 0.0 0.0 0.00 0.00 0.00 97 982.1
20201201022125 29 13 0.0 0.0 0.00 0.00 0.00 96 982.1
20201201021619 29 85 0.0 0.0 0.00 0.00 0.00 96 982.0
20201201021116 29 66 0.0 0.0 0.00 0.00 0.00 96 982.0
20201201020612 29 92 0.0 0.0 0.00 0.00 0.00 95 982.3
20201201020108 29 187 1.0 1.0 0.00 0.00 0.00 95 982.1
20201201015600 29 220 1.0 1.0 0.00 0.00 0.00 95 982.2
20201201015117 29 302 0.0 1.0 0.00 0.00 0.00 95 982.1
20201201014557 29 247 0.0 0.0 0.00 0.00 0.00 95 982.0
20201201014106 29 115 2.0 5.0 0.00 0.00 0.00 95 982.0
20201201013554 29 168 0.0 1.0 0.00 0.00 0.00 95 982.3
20201201013049 29 207 1.0 1.0 0.00 0.00 0.00 95 982.0
20201201012544 29 279 0.0 1.0 0.00 0.00 0.00 95 981.9
20201201012050 30 100 0.0 0.0 0.00 0.00 0.00 95 981.6
20201201011540 30 117 2.0 5.0 0.00 0.00 0.00 95 982.0
20201201011036 30 89 0.0 0.0 0.00 0.00 0.00 95 982.0
20201201010537 30 160 3.0 3.0 0.00 0.00 0.00 95 982.0
20201201010045 30 227 2.0 2.0 0.00 0.00 0.00 94 982.0
20201201005535 30 73 2.0 3.0 0.00 0.00 0.00 94 982.2
20201201005023 30 201 0.0 1.0 0.00 0.00 0.00 94 982.1
20201201004521 30 148 0.0 0.0 0.00 0.00 0.00 95 982.0
20201201004024 30 109 0.0 1.0 0.00 0.00 0.00 95 982.1
20201201003514 29 122 3.0 3.0 0.00 0.00 0.00 95 982.3
20201201003019 30 115 1.0 2.0 0.00 0.00 0.00 95 982.1
20201201002457 30 76 1.0 2.0 0.00 0.00 0.00 95 981.9
20201201001958 30 236 1.0 1.0 0.00 0.00 0.00 95 982.1
20201201001454 30 133 0.0 0.0 0.00 0.00 0.00 95 982.1
20201201001000 30 85 0.0 0.0 0.00 0.00 0.00 95 981.8
20201201000500 30 134 1.0 1.0 0.00 0.00 0.00 95 982.1
20201130235948 30 9 1.0 1.0 0.00 0.00 0.00 95 982.2
20201130235449 30 88 0.0 0.0 0.00 0.00 0.00 95 982.2
20201130234947 30 29 1.0 1.0 0.00 0.00 0.00 96 982.2
20201130234443 30 132 1.0 1.0 0.00 0.00 0.00 96 982.2
20201130233942 30 187 2.0 2.0 0.00 0.00 0.00 95 982.3
20201130233438 29 186 2.0 3.0 0.00 0.00 0.00 95 982.3
20201130232936 29 164 0.0 1.0 0.00 0.00 0.00 95 982.2
20201130232433 29 102 0.0 1.0 0.00 0.00 0.00 95 982.3
20201130231929 29 81 0.0 0.0 0.00 0.00 0.00 95 982.3
20201130231425 29 114 1.0 1.0 0.00 0.00 0.00 95 982.4
20201130230921 29 160 1.0 2.0 0.00 0.00 0.00 96 982.1
20201130230418 29 163 1.0 1.0 0.00 0.00 0.00 96 982.3
20201130225924 29 44 1.0 3.0 0.00 0.00 0.00 96 982.2
20201130225357 29 113 0.0 1.0 0.00 0.00 0.00 96 982.4
20201130224853 29 113 0.0 1.0 0.00 0.00 0.00 97 982.4
20201130224349 29 174 1.0 1.0 0.00 0.00 0.00 97 982.3
20201130223850 29 208 2.0 3.0 0.00 0.00 0.00 97 982.6
20201130223344 29 132 0.0 0.0 0.00 0.00 0.00 97 982.3
20201130222842 29 85 0.0 0.0 0.00 0.00 0.00 97 982.3
20201130222339 29 109 0.0 0.0 0.00 0.00 0.00 97 982.5
20201130221834 29 87 0.0 0.0 0.00 0.00 0.00 97 982.2
20201130221328 29 121 0.0 0.0 0.00 0.00 0.00 96 982.3
20201130220828 30 55 0.0 1.0 0.00 0.00 0.00 96 982.2
20201130220330 30 257 0.0 1.0 0.00 0.00 0.00 96 982.4
20201130215823 30 206 3.0 5.0 0.00 0.00 0.00 95 982.4
20201130215317 30 228 0.0 1.0 0.00 0.00 0.00 95 982.5
20201130214820 30 126 1.0 1.0 0.00 0.00 0.00 95 982.5
20201130214212 30 87 0.0 0.0 0.00 0.00 0.00 96 982.5
20201130213709 30 113 2.0 2.0 0.00 0.00 0.00 95 982.5
20201130213208 31 186 0.0 0.0 0.00 0.00 0.00 95 982.6
20201130212701 31 107 1.0 1.0 0.00 0.00 0.00 95 982.4
20201130212201 31 79 2.0 3.0 0.00 0.00 0.00 95 982.6
20201130211657 31 158 1.0 1.0 0.00 0.00 0.00 95 982.5
20201130211156 31 136 1.0 1.0 0.00 0.00 0.00 95 982.3
20201130210655 31 184 1.0 1.0 0.00 0.00 0.00 95 982.6
20201130210155 31 123 1.0 2.0 0.00 0.00 0.00 95 982.6
20201130205701 31 149 0.0 0.0 0.00 0.00 0.00 95 982.8
20201130205143 31 204 0.0 0.0 0.00 0.00 0.00 94 982.6
20201130204646 31 92 0.0 0.0 0.00 0.00 0.00 95 982.6
20201130204140 31 114 0.0 0.0 0.00 0.00 0.00 94 982.8
20201130203638 31 208 0.0 1.0 0.00 0.00 0.00 94 982.5
20201130203145 31 82 0.0 0.0 0.00 0.00 0.00 94 982.7
20201130202636 31 56 0.0 0.0 0.00 0.00 0.00 94 982.8
20201130202127 31 225 2.0 2.0 0.00 0.00 0.00 94 982.8
20201130201625 31 89 0.0 0.0 0.00 0.00 0.00 94 982.9
20201130201121 31 161 0.0 0.0 0.00 0.00 0.00 94 982.9
20201130200620 31 103 0.0 0.0 0.00 0.00 0.00 94 982.8
20201130200104 31 140 0.0 1.0 0.00 0.00 0.00 93 983.0
20201130195605 31 143 0.0 0.0 0.00 0.00 0.00 94 982.8
20201130195106 31 178 0.0 0.0 0.00 0.00 0.00 93 983.0
20201130194557 31 244 1.0 1.0 0.00 0.00 0.00 93 983.0
20201130194051 31 126 0.0 0.0 0.00 0.00 0.00 94 982.7
20201130193549 31 138 0.0 0.0 0.00 0.00 0.00 94 982.9
20201130193043 31 155 1.0 2.0 0.00 0.00 0.00 93 982.8
20201130192540 31 119 0.0 0.0 0.00 0.00 0.00 94 982.8
20201130192036 31 142 0.0 0.0 0.00 0.00 0.00 94 982.9
20201130191544 32 114 0.0 1.0 0.00 0.00 0.00 94 983.0
20201130191032 32 154 0.0 0.0 0.00 0.00 0.00 94 983.2
20201130190535 32 119 0.0 0.0 0.00 0.00 0.00 94 982.9
20201130190031 32 96 0.0 0.0 0.00 0.00 0.00 95 983.1
20201130185522 31 146 0.0 0.0 0.00 0.00 0.00 95 983.0
20201130185022 32 103 0.0 0.0 0.00 0.00 0.00 95 983.4
20201130184519 32 157 0.0 0.0 0.00 0.00 0.00 95 983.3
20201130184012 32 88 0.0 0.0 0.00 0.00 0.00 94 983.4
20201130183511 32 87 0.0 1.0 0.00 0.00 0.00 94 983.4
20201130183019 32 113 0.0 0.0 0.00 0.00 0.00 94 983.4
20201130182458 32 107 0.0 1.0 0.00 0.00 0.00 94 983.4
20201130181941 32 167 1.0 1.0 0.00 0.00 0.00 95 983.5
20201130181444 32 183 0.0 1.0 0.00 0.00 0.00 95 983.4
20201130180928 32 230 1.0 2.0 0.00 0.00 0.00 95 983.5
20201130180427 32 99 0.0 0.0 0.00 0.00 0.00 95 983.4
20201130175922 32 131 1.0 1.0 0.00 0.00 0.00 95 983.5
20201130175419 32 96 0.0 0.0 0.00 0.00 0.00 95 983.6
20201130174919 32 186 0.0 0.0 0.00 0.00 0.00 96 983.6
20201130174417 32 150 0.0 1.0 0.00 0.00 0.00 96 983.7
20201130173917 32 171 0.0 0.0 0.00 0.00 0.00 96 983.7